Wind_Speed
31 33 36 42 44 50 50 49 47 51 56 61 66 69 72 76 77 78 80 83 92 96 101 106 110 113 119 123 126 128 131 130 125 120 108 103 98 96 96 95 94 93 90 89
37 38 40 48 47 48 49 52 54 58 63 70 73 76 77 80 81 81 84 91 100 104 108 112 117 122 125 128 131 131 129 127 120 109 104 98 95 92 90 89 87 85 83 81
42 45 46 51 50 51 55 59 61 64 69 73 79 79 81 83 88 92 97 101 108 112 117 123 126 127 129 129 132 128 123 119 110 105 100 97 95 93 91 90 88 84 78 73
45 46 48 61 55 57 59 63 69 70 73 81 82 81 86 90 94 99 104 108 112 117 121 129 132 132 132 135 130 125 117 109 103 99 98 96 94 91 87 85 82 76 70 66
50 49 50 65 63 65 67 67 74 74 83 87 87 88 92 97 101 107 112 114 119 123 131 134 141 139 135 130 127 121 112 107 102 98 95 92 88 84 82 78 73 68 65 63
55 56 59 69 70 72 75 73 76 86 89 94 96 96 98 102 108 114 118 121 126 130 136 142 143 137 133 129 121 114 109 106 101 95 88 84 82 80 75 70 66 65 63 60
61 65 65 72 74 77 79 82 84 91 96 100 102 106 108 114 118 121 125 127 133 139 143 143 140 134 129 121 115 112 107 100 93 86 82 79 76 71 67 64 62 61 59 54
67 72 76 79 78 81 85 87 93 97 102 104 110 115 119 121 122 125 128 132 139 142 144 143 137 130 122 118 114 107 98 92 86 82 78 73 68 65 63 60 58 55 53 48
77 77 82 82 85 88 92 94 99 104 107 113 118 120 122 124 127 132 135 141 145 145 143 137 128 122 116 113 104 96 90 83 80 75 70 67 65 62 57 53 51 49 47 44
77 80 84 87 91 94 97 101 104 107 114 120 122 124 127 131 133 137 140 145 143 141 134 127 121 115 111 102 93 86 82 79 72 70 67 64 60 55 53 49 46 46 45 42
81 83 88 95 97 97 102 107 113 118 124 126 130 132 138 141 142 143 145 144 142 132 124 118 114 108 99 91 85 81 75 70 68 66 62 58 53 50 48 45 43 44 43 40
86 93 97 98 102 107 112 114 121 125 130 131 134 137 142 144 143 142 143 136 128 120 115 112 104 95 90 85 80 74 70 67 64 61 56 52 50 47 44 42 40 42 41 40
95 100 105 109 110 112 117 126 131 133 134 138 142 145 143 142 139 136 127 122 118 115 111 102 93 88 83 79 74 70 67 63 59 56 53 50 47 44 44 42 40 40 36 36
106 106 109 111 117 123 128 130 132 134 139 147 151 147 142 137 132 126 120 116 113 107 99 92 87 82 78 73 69 66 63 59 56 54 51 47 45 44 43 42 39 35 33 31
113 115 118 122 124 125 131 133 138 145 149 155 145 140 133 126 120 116 114 112 106 98 91 85 81 76 72 68 64 61 58 55 53 51 48 45 45 43 41 38 34 31 28 27
122 124 128 129 129 132 137 145 152 151 152 139 131 126 122 118 115 113 109 102 94 89 84 79 75 71 66 62 60 57 54 51 49 48 46 45 42 40 37 34 32 29 28 28
129 130 130 135 135 138 146 153 151 146 137 127 120 114 111 111 108 103 97 90 85 81 77 73 70 66 62 60 56 53 50 48 47 46 46 43 40 37 35 32 31 31 29 26
132 133 135 139 142 146 149 145 140 130 119 111 108 107 106 103 95 92 86 81 78 75 71 68 66 62 59 55 51 49 48 46 46 45 44 41 38 35 33 33 32 29 26 25
138 139 140 148 148 147 139 128 117 112 105 103 104 100 95 90 86 83 78 76 71 68 66 64 61 58 53 50 47 47 46 45 46 45 42 39 35 33 32 32 30 27 25 24
141 146 151 148 139 127 116 109 103 104 103 99 91 85 83 81 78 75 70 68 66 63 62 60 56 51 49 47 45 45 45 45 44 42 39 36 34 32 32 30 27 25 24 23
151 144 132 118 113 107 105 105 102 99 94 88 82 79 77 73 69 66 64 63 61 60 58 55 52 49 46 45 44 45 44 44 42 39 37 36 34 31 29 27 25 24 23 22
127 115 109 105 103 101 102 100 95 88 82 79 76 73 69 65 63 61 60 59 57 56 53 51 48 47 45 45 44 44 43 42 40 38 37 35 33 29 27 25 23 23 23 21
104 101 98 99 98 96 94 89 82 77 75 72 68 65 62 60 59 58 56 56 54 52 50 48 46 45 45 44 43 43 42 39 37 37 35 33 31 28 25 23 23 23 22 21
97 96 95 94 91 87 81 77 73 70 68 65 62 60 59 57 56 55 54 53 50 48 47 46 45 45 44 43 43 43 40 38 35 35 33 31 30 28 26 24 23 23 22 21
92 90 88 84 79 74 71 68 66 63 62 60 58 57 56 56 54 52 50 48 46 45 45 45 46 44 43 42 42 41 39 38 35 33 32 31 29 28 27 26 24 23 23 21
84 82 78 74 69 67 65 64 62 60 58 56 55 55 54 52 50 47 46 45 45 45 45 45 44 43 43 42 41 41 39 38 35 32 31 31 29 28 26 26 25 22 21 21
78 74 70 68 63 62 60 58 58 56 54 53 52 51 48 47 46 44 44 44 45 45 45 44 43 43 42 40 40 39 38 36 34 32 31 30 29 28 27 25 24 23 21 20
Wind_Direction
288 287 288 292 298 303 307 308 311 310 310 309 309 308 308 307 309 310 311 312 314 314 314 313 314 314 315 315 315 317 316 314 313 312 310 308 306 304 303 303 303 304 304 302
297 295 297 295 299 305 309 311 312 309 306 309 309 310 312 311 311 309 310 314 314 315 315 315 315 315 315 316 316 315 312 313 311 311 310 306 304 303 303 303 302 302 301 299
298 302 303 296 303 309 312 310 308 309 310 312 313 312 312 315 317 316 317 317 317 317 317 317 316 315 315 314 313 314 314 313 312 312 309 309 308 307 306 305 304 303 301 299
295 297 304 295 302 306 307 308 307 311 311 313 314 317 317 317 317 316 316 316 317 318 317 318 319 317 315 314 314 313 313 313 312 312 311 309 308 307 305 305 304 303 302 300
297 303 305 295 306 308 308 308 306 309 312 313 316 318 314 316 315 316 315 315 317 316 317 318 317 317 316 314 315 315 315 314 313 311 310 308 307 306 306 306 304 303 302 302
302 307 307 301 306 307 309 308 307 310 313 316 315 314 314 314 313 314 316 315 316 317 317 316 314 315 315 316 316 315 315 314 312 311 311 309 308 308 307 305 305 304 301 300
303 305 306 304 308 310 310 311 312 313 313 315 315 315 315 313 314 313 314 315 317 315 313 314 314 316 317 317 316 315 313 312 312 312 311 309 308 307 306 306 305 303 301 302
302 304 306 307 311 311 312 313 313 314 315 315 314 314 314 313 313 312 313 314 313 312 315 315 316 317 316 316 315 313 313 313 313 311 310 309 309 308 308 307 305 303 302 301
302 306 304 308 310 311 312 312 314 315 315 314 313 312 313 312 312 312 313 312 312 313 315 316 316 315 315 314 314 313 313 313 311 310 310 311 310 310 309 308 305 301 300 299
301 302 306 308 307 310 313 313 313 312 312 313 313 314 313 312 310 311 310 310 313 315 315 315 314 315 315 314 314 314 313 313 313 312 312 312 311 312 310 308 305 302 300 299
303 303 304 306 307 309 309 310 310 311 312 313 312 312 312 312 310 310 311 313 313 314 314 314 314 315 314 315 316 315 315 313 312 312 313 313 313 311 308 305 303 300 299 299
304 303 306 305 304 304 305 306 307 309 312 313 312 311 311 311 311 311 311 312 313 313 315 315 315 315 316 317 316 315 314 314 314 314 314 314 313 311 307 306 304 301 303 300
302 300 300 303 303 303 304 307 308 310 312 313 312 311 310 310 310 310 312 313 313 314 314 316 316 316 317 316 315 314 314 315 315 315 316 315 313 311 308 307 306 304 303 300
300 302 303 302 304 305 306 308 309 311 311 310 311 311 311 310 312 311 311 312 314 315 316 316 316 317 316 316 315 315 315 316 316 316 315 315 314 314 312 310 309 306 303 301
302 302 304 304 304 304 307 309 309 309 309 309 310 310 310 309 310 312 313 313 314 315 314 315 316 316 316 316 316 315 316 316 315 314 316 316 317 315 312 311 310 307 305 301
301 302 303 303 304 306 308 309 307 307 307 308 310 309 310 310 310 310 311 312 313 313 314 315 316 316 317 316 315 315 315 315 315 315 318 320 319 316 315 314 312 310 308 305
302 302 302 302 303 305 306 305 306 307 308 308 308 307 306 307 309 310 310 312 312 312 314 316 317 317 316 316 316 317 316 316 317 319 321 321 321 319 317 315 314 314 312 311
300 300 301 302 304 304 306 306 306 307 306 307 307 307 306 307 310 309 311 312 312 314 316 317 317 317 316 316 317 316 317 318 319 321 322 323 321 320 317 316 316 316 314 313
297 298 300 301 302 306 305 305 306 306 305 306 305 305 308 309 310 310 312 311 313 315 317 316 316 316 316 316 317 318 318 320 322 323 323 323 322 320 318 317 315 315 314 313
297 299 299 301 304 304 305 304 305 305 306 305 306 309 309 309 310 311 311 313 315 316 316 315 315 316 316 317 318 319 321 322 323 323 323 324 323 322 319 317 313 313 313 311
298 300 302 302 304 304 304 304 305 306 306 308 310 309 309 309 310 311 313 315 316 315 315 315 316 317 318 318 320 322 322 322 323 323 324 325 323 323 319 316 312 312 312 309
300 300 302 303 302 303 304 304 306 306 308 308 308 308 308 310 311 314 314 314 314 314 314 315 316 317 318 319 320 322 322 322 323 323 325 325 324 323 321 315 312 311 310 308
300 301 302 302 303 304 304 305 306 308 307 307 307 308 311 312 313 314 313 313 313 314 314 316 317 318 318 319 321 321 322 322 324 323 324 324 323 323 322 316 311 310 307 307
300 301 303 302 303 304 304 305 306 308 307 308 310 312 313 312 312 311 312 312 313 314 314 315 316 316 318 320 321 321 322 323 325 323 322 323 322 321 320 317 310 307 305 303
300 301 302 302 303 304 305 306 306 308 309 311 311 311 311 310 310 311 312 313 313 314 315 315 315 317 319 320 320 320 322 324 325 323 321 320 319 319 318 315 310 304 302 299
302 302 302 303 304 306 306 307 308 310 310 310 310 309 309 309 310 312 312 312 313 314 314 314 316 317 318 319 319 320 322 323 324 323 322 320 318 318 318 316 312 306 302 298
300 300 303 304 306 305 306 308 308 308 309 309 309 308 309 309 311 312 312 313 314 314 314 314 315 316 317 318 319 320 322 323 324 323 321 320 319 318 317 315 313 310 306 299
Height
10625 10623 10620 10612 10610 10603 10600 10596 10595 10587 10578 10572 10564 10556 10548 10539 10530 10521 10509 10497 10483 10471 10457 10441 10425 10408 10391 10372 10352 10334 10316 10300 10287 10270 10254 10239 10225 10211 10197 10185 10173 10163 10153 10141
10612 10614 10611 10601 10599 10599 10592 10585 10582 10574 10565 10555 10546 10538 10530 10519 10511 10501 10490 10477 10460 10444 10430 10414 10398 10381 10363 10344 10328 10314 10294 10275 10257 10240 10225 10210 10198 10186 10172 10161 10149 10139 10128 10118
10608 10602 10598 10587 10587 10586 10581 10572 10566 10560 10549 10538 10528 10520 10509 10500 10486 10473 10464 10453 10438 10422 10404 10389 10373 10356 10340 10321 10301 10283 10266 10246 10227 10211 10194 10179 10166 10153 10141 10129 10119 10110 10101 10091
10601 10595 10593 10568 10578 10577 10572 10562 10550 10545 10534 10523 10513 10506 10491 10480 10471 10457 10443 10430 10414 10398 10382 10365 10348 10329 10308 10291 10270 10250 10233 10219 10202 10186 10169 10153 10140 10127 10115 10104 10093 10083 10075 10068
10587 10587 10585 10561 10565 10561 10556 10553 10536 10531 10519 10506 10496 10489 10474 10459 10444 10431 10418 10403 10390 10375 10356 10333 10313 10298 10278 10259 10242 10219 10201 10185 10172 10159 10145 10129 10116 10103 10091 10081 10070 10061 10054 10047
10572 10572 10571 10550 10551 10546 10542 10539 10525 10511 10499 10488 10479 10469 10458 10444 10429 10415 10398 10380 10363 10345 10324 10305 10285 10269 10249 10229 10209 10189 10173 10158 10143 10131 10118 10103 10091 10080 10069 10060 10050 10041 10034 10029
10556 10553 10551 10538 10537 10528 10519 10513 10505 10491 10479 10469 10454 10439 10431 10419 10405 10386 10370 10353 10333 10317 10300 10278 10254 10235 10215 10197 10182 10166 10148 10134 10120 10107 10094 10082 10071 10062 10051 10041 10032 10023 10015 10011
10543 10535 10528 10521 10517 10509 10501 10494 10481 10470 10456 10444 10431 10420 10407 10391 10376 10360 10344 10327 10308 10288 10267 10245 10223 10205 10190 10173 10156 10141 10124 10108 10095 10084 10072 10060 10051 10041 10032 10024 10014 10005 9999 9995
10523 10521 10506 10503 10495 10487 10479 10471 10459 10447 10435 10422 10408 10396 10382 10366 10349 10331 10313 10294 10275 10258 10239 10216 10199 10180 10166 10150 10133 10118 10102 10088 10076 10064 10052 10042 10033 10023 10014 10007 9999 9991 9985 9981
10511 10500 10490 10482 10473 10465 10454 10444 10435 10425 10412 10398 10384 10367 10354 10337 10320 10305 10285 10267 10247 10229 10209 10191 10173 10156 10140 10124 10111 10095 10081 10068 10057 10044 10034 10025 10016 10008 9999 9991 9984 9977 9971 9967
10497 10486 10479 10463 10449 10444 10434 10426 10415 10401 10389 10372 10359 10345 10322 10308 10288 10270 10252 10234 10217 10203 10187 10168 10151 10134 10116 10102 10088 10074 10062 10051 10040 10029 10019 10009 10002 9994 9985 9979 9972 9963 9958 9956
10480 10465 10455 10449 10437 10425 10416 10405 10394 10379 10366 10351 10330 10314 10297 10281 10260 10243 10226 10210 10192 10175 10158 10142 10126 10108 10094 10080 10068 10055 10044 10034 10025 10014 10005 9997 9989 9980 9973 9966 9959 9951 9947 9941
10457 10447 10437 10427 10417 10407 10393 10379 10363 10349 10336 10321 10307 10287 10270 10251 10235 10218 10199 10182 10165 10150 10134 10120 10104 10090 10077 10065 10052 10040 10030 10020 10010 10001 9992 9984 9976 9968 9959 9953 9947 9939 9936 9931
10433 10426 10417 10406 10391 10377 10366 10353 10337 10320 10304 10287 10271 10256 10237 10218 10201 10186 10171 10157 10139 10124 10112 10098 10084 10072 10061 10050 10038 10026 10015 10006 9996 9988 9980 9972 9963 9955 9947 9940 9935 9931 9926 9922
10408 10399 10387 10375 10364 10351 10337 10323 10313 10296 10279 10264 10247 10226 10209 10192 10176 10161 10145 10130 10116 10105 10092 10080 10069 10057 10047 10035 10024 10013 10003 9994 9985 9976 9969 9961 9952 9943 9936 9930 9925 9921 9917 9914
10383 10373 10361 10349 10336 10323 10312 10298 10283 10270 10255 10238 10222 10202 10183 10166 10153 10141 10126 10112 10099 10086 10074 10064 10053 10043 10032 10022 10012 10002 9993 9984 9975 9966 9958 9950 9942 9933 9927 9921 9917 9912 9908 9905
10355 10342 10330 10318 10308 10299 10284 10268 10249 10236 10224 10209 10194 10179 10163 10147 10134 10119 10105 10095 10082 10070 10059 10048 10038 10028 10019 10009 9999 9990 9981 9973 9964 9956 9948 9939 9932 9924 9918 9913 9908 9904 9900 9896
10329 10314 10304 10293 10281 10270 10259 10239 10223 10208 10194 10184 10170 10155 10140 10125 10114 10099 10087 10077 10064 10054 10043 10033 10024 10016 10006 9997 9988 9979 9971 9962 9954 9946 9938 9930 9923 9917 9910 9905 9900 9896 9892 9889
10301 10290 10280 10267 10251 10238 10226 10212 10197 10182 10169 10160 10147 10133 10117 10104 10092 10079 10069 10058 10049 10039 10030 10020 10012 10005 9995 9986 9978 9969 9961 9953 9944 9936 9929 9922 9916 9910 9904 9898 9893 9890 9886 9882
10273 10261 10248 10234 10222 10207 10196 10180 10168 10157 10147 10134 10123 10110 10097 10085 10073 10063 10053 10043 10033 10025 10017 10009 10001 9993 9985 9976 9968 9960 9951 9943 9935 9928 9921 9914 9908 9902 9896 9891 9886 9883 9880 9876
10241 10229 10220 10207 10197 10184 10166 10152 10143 10135 10122 10107 10098 10087 10077 10067 10057 10047 10038 10028 10020 10012 10005 9997 9989 9981 9973 9965 9957 9950 9942 9933 9927 9920 9913 9906 9900 9896 9889 9884 9880 9876 9873 9871
10212 10202 10193 10181 10170 10159 10143 10130 10121 10112 10101 10089 10079 10070 10060 10051 10041 10032 10023 10016 10008 10001 9993 9986 9978 9970 9963 9955 9948 9940 9933 9925 9918 9912 9906 9899 9893 9889 9884 9879 9875 9871 9867 9865
10188 10179 10168 10156 10144 10134 10124 10111 10102 10093 10081 10071 10062 10053 10044 10034 10026 10018 10012 10004 9997 9989 9982 9975 9968 9961 9954 9946 9939 9931 9925 9918 9911 9904 9898 9893 9887 9882 9878 9874 9869 9865 9862 9859
10160 10151 10142 10130 10121 10112 10105 10092 10082 10074 10063 10055 10046 10036 10028 10020 10014 10007 10000 9993 9985 9978 9971 9965 9958 9951 9945 9937 9930 9923 9916 9910 9904 9897 9891 9886 9881 9876 9872 9868 9864 9860 9856 9853
10137 10129 10118 10109 10102 10095 10084 10075 10065 10059 10048 10040 10031 10023 10016 10009 10003 9996 9988 9981 9975 9968 9962 9955 9947 9941 9935 9928 9921 9914 9908 9902 9896 9890 9884 9880 9875 9870 9865 9861 9858 9854 9850 9847
10113 10104 10096 10089 10084 10075 10065 10058 10049 10042 10033 10026 10018 10011 10004 9998 9991 9984 9977 9970 9964 9958 9951 9944 9938 9932 9925 9919 9913 9906 9899 9893 9888 9882 9877 9871 9867 9862 9858 9854 9850 9846 9843 9840
10091 10084 10079 10070 10066 10059 10052 10045 10036 10028 10021 10013 10007 10000 9994 9986 9980 9974 9967 9961 9954 9948 9941 9935 9929 9923 9917 9911 9904 9898 9891 9885 9879 9874 9870 9865 9859 9855 9851 9847 9843 9839 9836 9833